Regional Weather Roundup
Issued by NWS

Home | Current Version | Previous Version | Graphics & Text | Print | Product List | Glossary Off
Versions: 1 2 3 4 5 6 7 8 9 10 11 12 13 14 15 16 17 18 19 20 21 22 23 24 25 26 27 28 29 30 31 32 33 34 35 36 37 38 39 40 41 42 43 44 45 46 47 48 49 50

879
ASUS43 KDMX 120508
RWRIA

WEATHER ROUNDUP FOR IOWA
NATIONAL WEATHER SERVICE DES MOINES IA
1100 PM CST THU FEB 11 2016

NOTE: "FAIR" INDICATES FEW OR NO CLOUDS BELOW 12,000 FEET WITH NO
SIGNIFICANT WEATHER AND/OR OBSTRUCTIONS TO VISIBILITY.

* - THESE STATIONS ARE NOT NWS STATIONS...THUS NOT UNDER NWS
QUALITY CONTROL.  THEY ALSO DO NOT REPORT WEATHER SUCH
AS PRECIPITATION OR FOG.

IAZ001>003-012>014-020>022-031>034-043>046-120600-
   NORTHWEST IOWA

CITY           SKY/WX    TMP DP  RH WIND       PRES   REMARKS
CARROLL *      CLOUDY    14  12  92 CALM      30.22S
CHEROKEE *     CLOUDY    14  13  96 CALM      30.23S
DENISON *      CLOUDY    16  14  93 CALM      30.20R
LE MARS *      CLOUDY    18  18 100 CALM      30.24S
ORANGE CITY *  CLOUDY    12  12 100 CALM      30.22R
SHELDON *      CLOUDY    10   9  92 N3        30.21S
SIOUX CITY     CLOUDY    20  15  81 CALM      30.24S
SPENCER        CLOUDY     8   4  83 W5        30.21F WCI   0
STORM LAKE *   CLOUDY    12  12 100 SW7       30.20S WCI   2
$$

IAZ055>058-069>071-079>083-090>094-120600-
   SOUTHWEST IOWA

CITY           SKY/WX    TMP DP  RH WIND       PRES   REMARKS
ATLANTIC *     CLOUDY    21  18  86 CALM      30.21F
AUDUBON *      CLOUDY    18  14  86 CALM      30.21R
CLARINDA *     CLOUDY    30  19  64 E5        30.23R WCI  25
COUNCIL BLFS * CLOUDY    23  21  93 NE5       30.21R WCI  17
CRESTON *      CLOUDY    21  18  86 E8        30.21S WCI  12
HARLAN  *      CLOUDY    21  18  86 CALM      30.25S
LAMONI         LGT SNOW  21  17  84 E5        30.21S FOG     WCI  15
RED OAK *      CLOUDY    27  21  80 NE3       30.22R
SHENANDOAH *   CLOUDY    30  25  80 NE6       30.22S WCI  24
$$

IAZ047>049-059>061-072>074-084-120600-
   CENTRAL IOWA

CITY           SKY/WX    TMP DP  RH WIND       PRES   REMARKS
AMES           CLOUDY    13  11  92 CALM      30.24R
ANKENY *       MOCLDY    14  14 100 CALM      30.24F
BOONE *        CLOUDY    14  12  92 CALM      30.21S
CHARITON *     LGT SNOW  19  18  93 SE5       30.23S WCI  13
DES MOINES     FLURRIES  18  13  80 E5        30.24F WCI  11
GRINNELL*      LGT SNOW  18  16  93 CALM      30.24F
KNOXVILLE *    LGT SNOW  18  16  93 SE3       30.22F
MARSHALLTOWN   MOCLDY    13  10  88 CALM      30.23S
NEWTON *       FLURRIES  18  18 100 CALM      30.23F
PELLA *        FLURRIES  19  16  90 CALM      30.26F
$$

IAZ004>006-015-016-023>025-035-036-120600-
   NORTH CENTRAL IOWA

CITY           SKY/WX    TMP DP  RH WIND       PRES   REMARKS
ALGONA *       CLOUDY    12  10  92 W5        30.21S WCI   4
CLARION *      CLOUDY    10   7  85 CALM      30.22S
ESTHERVILLE    CLOUDY    13  10  88 W8        30.21S WCI   2
FORT DODGE *   CLOUDY    16  10  79 SW3       30.23S
MASON CITY     CLOUDY    11   6  81 SW3       30.22F
FOREST CITY *  CLOUDY    10   7  85 CALM      30.22S
WEBSTER CITY * CLOUDY    14  12  92 S5        30.20F WCI   6
IOWA FALLS *   CLOUDY    12  10  92 SW3       30.23F
$$

IAZ007>011-017>019-026>030-037>042-050>054-066-120600-
   NORTHEAST IOWA

CITY           SKY/WX    TMP DP  RH WIND       PRES   REMARKS
CEDAR RAPIDS   CLOUDY    19  13  77 SW5       30.24S WCI  12
CHARLES CITY * CLOUDY    10   5  79 SW3       30.22F
CLINTON *      MOCLDY    16   7  67 CALM      30.26F
DECORAH *      CLOUDY    10   3  72 S3        30.20F
DUBUQUE        MOCLDY    14   4  64 CALM      30.22F
MONTICELLO *   MOCLDY    14   7  73 CALM      30.25S
OELWEIN *      CLOUDY    10   3  72 CALM      30.23F
WATERLOO       CLOUDY     7   2  80 CALM      30.24F
$$

IAZ064-065-067-068-078-120600-
   EAST CENTRAL IOWA

CITY           SKY/WX    TMP DP  RH WIND       PRES   REMARKS
DAVENPORT      CLOUDY    20   7  57 CALM      30.25F
IOWA CITY      CLOUDY    20  15  81 SW5       30.28S WCI  13
MT. PLEASANT * LGT SNOW  22  19  88 CALM      30.26F
MUSCATINE *    LGT SNOW  21  18  86 SW6       30.28S WCI  14
QUAD CITIES    CLOUDY    22   9  57 CALM      30.26S
$$

IAZ062-063-075>077-085>089-095>099-120600-
   SOUTHEAST IOWA

CITY           SKY/WX    TMP DP  RH WIND       PRES   REMARKS
BURLINGTON     CLOUDY    21  18  88 SW6       30.25F WCI  13
FAIRFIELD *    LGT SNOW  21  16  79 S5        30.26R WCI  15
FORT MADISON * FLURRIES  19  18  93 CALM      30.26F
KEOKUK *       LGT SNOW  21  19  93 CALM      30.26F
OSKALOOSA *    LGT SNOW  19  18  93 CALM      30.25F
CENTERVILLE *  FLURRIES  19  18  93 CALM      30.24F
OTTUMWA        LGT SNOW  20  18  92 CALM      30.25S FOG
WASHINGTON *   MIX PCPN  21  19  93 SW3       30.28R
$$

ABBREVIATIONS USED IN REMARKS
   TC - TEMPERATURES IN CELSIUS
  WCI - WIND CHILL INDEX
   HX - HEAT INDEX
  VSB - VISIBILITY
$$





USA.gov is the U.S. government's official web portal to all federal, state and local government web resources and services.